Wetterdaten: Donnerstag, 11.01.2018
Datum Zeit Temp. Auen Feucht Auen Luftdruck Regen Richtung Richtung Windben
11.01.2018 00:00 -1,7 C 95 % 1014,1 hPa 0,0 mm SW 218 0,0 km/h (0 Bft)
11.01.2018 00:05 -1,8 C 95 % 1014,2 hPa 0,0 mm SW 218 0,0 km/h (0 Bft)
11.01.2018 00:10 -1,8 C 95 % 1014,1 hPa 0,0 mm SW 218 0,0 km/h (0 Bft)
11.01.2018 00:15 -1,7 C 95 % 1014,1 hPa 0,0 mm SW 218 0,0 km/h (0 Bft)
11.01.2018 00:20 -1,4 C 95 % 1014,2 hPa 0,0 mm SW 218 0,0 km/h (0 Bft)
11.01.2018 00:25 -1,3 C 95 % 1014,1 hPa 0,0 mm SW 218 0,0 km/h (0 Bft)
11.01.2018 00:30 -1,2 C 95 % 1014,1 hPa 0,0 mm SW 218 0,0 km/h (0 Bft)
11.01.2018 00:35 -1,0 C 95 % 1014,1 hPa 0,0 mm SW 218 0,0 km/h (0 Bft)
11.01.2018 00:40 -0,9 C 95 % 1014,1 hPa 0,0 mm SW 218 0,0 km/h (0 Bft)
11.01.2018 00:45 -0,8 C 95 % 1014,1 hPa 0,0 mm SW 218 1,6 km/h (1 Bft)
11.01.2018 00:50 -0,7 C 95 % 1014,1 hPa 0,0 mm SW 218 1,6 km/h (1 Bft)
11.01.2018 00:55 -0,6 C 95 % 1014,2 hPa 0,0 mm SW 218 1,6 km/h (1 Bft)
11.01.2018 01:00 -0,5 C 95 % 1014,1 hPa 0,0 mm SW 218 0,0 km/h (0 Bft)
11.01.2018 01:05 -0,4 C 95 % 1014,1 hPa 0,0 mm SW 218 0,0 km/h (0 Bft)
11.01.2018 01:10 -0,3 C 95 % 1014,2 hPa 0,0 mm SW 218 0,0 km/h (0 Bft)
11.01.2018 01:15 -0,2 C 95 % 1014,1 hPa 0,0 mm SW 218 0,0 km/h (0 Bft)
11.01.2018 01:20 -0,1 C 95 % 1014,2 hPa 0,0 mm SW 218 0,0 km/h (0 Bft)
11.01.2018 01:25 0,1 C 95 % 1014,1 hPa 0,0 mm SW 218 0,0 km/h (0 Bft)
11.01.2018 01:30 0,4 C 95 % 1014,1 hPa 0,0 mm SW 218 3,2 km/h (1 Bft)
11.01.2018 01:35 0,6 C 95 % 1014,1 hPa 0,0 mm SW 218 0,0 km/h (0 Bft)
11.01.2018 01:40 0,5 C 95 % 1014,0 hPa 0,0 mm SW 218 0,0 km/h (0 Bft)
11.01.2018 01:45 0,5 C 95 % 1014,1 hPa 0,0 mm SW 218 0,0 km/h (0 Bft)
11.01.2018 01:50 0,6 C 95 % 1014,1 hPa 0,0 mm SW 218 0,0 km/h (0 Bft)
11.01.2018 01:55 0,7 C 95 % 1014,3 hPa 0,0 mm SW 218 0,0 km/h (0 Bft)
11.01.2018 02:00 0,7 C 95 % 1014,2 hPa 0,0 mm SW 218 0,0 km/h (0 Bft)
11.01.2018 02:05 0,8 C 96 % 1014,3 hPa 0,0 mm SW 218 3,2 km/h (1 Bft)
11.01.2018 02:10 0,8 C 95 % 1014,4 hPa 0,0 mm SW 218 0,0 km/h (0 Bft)
11.01.2018 02:15 0,8 C 95 % 1014,4 hPa 0,0 mm SW 218 0,0 km/h (0 Bft)
11.01.2018 02:20 0,8 C 96 % 1014,4 hPa 0,0 mm SW 218 0,0 km/h (0 Bft)
11.01.2018 02:25 0,7 C 96 % 1014,4 hPa 0,0 mm SW 218 0,0 km/h (0 Bft)
11.01.2018 02:30 0,7 C 96 % 1014,4 hPa 0,0 mm SW 218 0,0 km/h (0 Bft)
11.01.2018 02:35 0,7 C 96 % 1014,4 hPa 0,0 mm SW 218 0,0 km/h (0 Bft)
11.01.2018 02:40 0,7 C 96 % 1014,4 hPa 0,0 mm SW 218 0,0 km/h (0 Bft)
11.01.2018 02:45 0,7 C 96 % 1014,4 hPa 0,0 mm SW 218 1,6 km/h (1 Bft)
11.01.2018 02:50 0,7 C 96 % 1014,4 hPa 0,0 mm SW 218 3,2 km/h (1 Bft)
11.01.2018 02:55 0,7 C 96 % 1014,4 hPa 0,0 mm SW 218 3,2 km/h (1 Bft)
11.01.2018 03:00 0,7 C 96 % 1014,4 hPa 0,0 mm S-SO 164 6,4 km/h (2 Bft)
11.01.2018 03:05 0,7 C 96 % 1014,4 hPa 0,0 mm S-SO 164 1,6 km/h (1 Bft)
11.01.2018 03:10 0,7 C 96 % 1014,4 hPa 0,0 mm S-SO 164 0,0 km/h (0 Bft)
11.01.2018 03:15 0,7 C 96 % 1014,4 hPa 0,0 mm S-SO 164 1,6 km/h (1 Bft)
11.01.2018 03:20 0,7 C 96 % 1014,3 hPa 0,0 mm S-SO 159 4,8 km/h (1 Bft)
11.01.2018 03:25 0,7 C 96 % 1014,4 hPa 0,0 mm S-SO 159 3,2 km/h (1 Bft)
11.01.2018 03:30 0,7 C 96 % 1014,4 hPa 0,0 mm S-SO 159 1,6 km/h (1 Bft)
11.01.2018 03:35 0,8 C 96 % 1014,3 hPa 0,0 mm S-SO 159 3,2 km/h (1 Bft)
11.01.2018 03:40 0,7 C 96 % 1014,4 hPa 0,0 mm S-SO 159 3,2 km/h (1 Bft)
11.01.2018 03:45 0,7 C 96 % 1014,5 hPa 0,0 mm O-NO 66 4,8 km/h (1 Bft)
11.01.2018 03:50 0,8 C 96 % 1014,5 hPa 0,0 mm O-NO 66 3,2 km/h (1 Bft)
11.01.2018 03:55 0,8 C 96 % 1014,5 hPa 0,0 mm O-NO 66 4,8 km/h (1 Bft)
11.01.2018 04:00 0,8 C 96 % 1014,5 hPa 0,0 mm O-NO 66 4,8 km/h (1 Bft)
11.01.2018 04:05 0,8 C 96 % 1014,4 hPa 0,0 mm O-NO 66 1,6 km/h (1 Bft)
11.01.2018 04:10 0,8 C 96 % 1014,5 hPa 0,0 mm O-NO 66 6,4 km/h (2 Bft)
11.01.2018 04:15 0,9 C 96 % 1014,4 hPa 0,0 mm O-NO 66 4,8 km/h (1 Bft)
11.01.2018 04:20 0,9 C 96 % 1014,5 hPa 0,0 mm O-NO 65 6,4 km/h (2 Bft)
11.01.2018 04:25 0,9 C 96 % 1014,4 hPa 0,0 mm O-NO 65 4,8 km/h (1 Bft)
11.01.2018 04:30 0,9 C 96 % 1014,4 hPa 0,0 mm O-SO 108 8,0 km/h (2 Bft)
11.01.2018 04:35 0,9 C 96 % 1014,6 hPa 0,0 mm O-SO 108 6,4 km/h (2 Bft)
11.01.2018 04:40 0,9 C 96 % 1014,5 hPa 0,0 mm O 98 8,0 km/h (2 Bft)
11.01.2018 04:45 0,9 C 96 % 1014,5 hPa 0,0 mm O 86 4,8 km/h (1 Bft)
11.01.2018 04:50 0,9 C 96 % 1014,5 hPa 0,0 mm O-NO 76 8,0 km/h (2 Bft)
11.01.2018 04:55 0,8 C 96 % 1014,4 hPa 0,0 mm O-NO 76 6,4 km/h (2 Bft)
11.01.2018 05:00 0,8 C 96 % 1014,5 hPa 0,0 mm O 79 6,4 km/h (2 Bft)
11.01.2018 05:05 0,8 C 96 % 1014,5 hPa 0,0 mm O-SO 115 9,7 km/h (2 Bft)
11.01.2018 05:10 0,8 C 96 % 1014,5 hPa 0,0 mm O-SO 105 6,4 km/h (2 Bft)
11.01.2018 05:15 0,8 C 96 % 1014,5 hPa 0,0 mm SO 140 6,4 km/h (2 Bft)
11.01.2018 05:20 0,8 C 96 % 1014,6 hPa 0,0 mm SO 130 8,0 km/h (2 Bft)
11.01.2018 05:25 0,8 C 96 % 1014,5 hPa 0,0 mm SO 128 6,4 km/h (2 Bft)
11.01.2018 05:30 0,8 C 96 % 1014,7 hPa 0,0 mm SO 128 3,2 km/h (1 Bft)
11.01.2018 05:35 0,8 C 96 % 1014,7 hPa 0,0 mm SO 128 4,8 km/h (1 Bft)
11.01.2018 05:40 0,9 C 96 % 1014,7 hPa 0,0 mm SO 128 4,8 km/h (1 Bft)
11.01.2018 05:45 0,8 C 96 % 1014,7 hPa 0,0 mm SO 128 4,8 km/h (1 Bft)
11.01.2018 05:50 0,8 C 96 % 1014,8 hPa 0,0 mm SO 128 4,8 km/h (1 Bft)
11.01.2018 05:55 0,8 C 96 % 1014,8 hPa 0,0 mm SO 128 4,8 km/h (1 Bft)
11.01.2018 06:00 0,8 C 96 % 1014,8 hPa 0,0 mm SO 128 1,6 km/h (1 Bft)
11.01.2018 06:05 0,8 C 96 % 1014,8 hPa 0,0 mm SO 128 3,2 km/h (1 Bft)
11.01.2018 06:10 0,8 C 96 % 1014,9 hPa 0,0 mm SO 128 4,8 km/h (1 Bft)
11.01.2018 06:15 0,8 C 96 % 1014,9 hPa 0,0 mm SO 128 4,8 km/h (1 Bft)
11.01.2018 06:20 0,7 C 96 % 1015,0 hPa 0,0 mm SO 134 4,8 km/h (1 Bft)
11.01.2018 06:25 0,7 C 96 % 1015,0 hPa 0,0 mm SO 134 1,6 km/h (1 Bft)
11.01.2018 06:30 0,7 C 96 % 1015,0 hPa 0,0 mm SO 134 0,0 km/h (0 Bft)
11.01.2018 06:35 0,6 C 96 % 1015,1 hPa 0,0 mm SO 132 6,4 km/h (2 Bft)
11.01.2018 06:40 0,7 C 96 % 1015,2 hPa 0,0 mm SO 132 4,8 km/h (1 Bft)
11.01.2018 06:45 0,6 C 96 % 1015,3 hPa 0,0 mm SO 132 3,2 km/h (1 Bft)
11.01.2018 06:50 0,6 C 96 % 1015,2 hPa 0,0 mm SO 132 3,2 km/h (1 Bft)
11.01.2018 06:55 0,6 C 96 % 1015,3 hPa 0,0 mm SO 132 0,0 km/h (0 Bft)
11.01.2018 07:00 0,6 C 96 % 1015,3 hPa 0,0 mm SO 132 6,4 km/h (2 Bft)
11.01.2018 07:05 0,5 C 96 % 1015,4 hPa 0,0 mm SO 132 6,4 km/h (2 Bft)
11.01.2018 07:10 0,5 C 96 % 1015,4 hPa 0,0 mm SO 132 3,2 km/h (1 Bft)
11.01.2018 07:15 0,5 C 96 % 1015,4 hPa 0,0 mm SO 132 3,2 km/h (1 Bft)
11.01.2018 07:20 0,5 C 96 % 1015,5 hPa 0,0 mm SO 132 3,2 km/h (1 Bft)
11.01.2018 07:25 0,6 C 96 % 1015,5 hPa 0,0 mm SO 132 3,2 km/h (1 Bft)
11.01.2018 07:30 0,6 C 96 % 1015,6 hPa 0,0 mm SO 132 3,2 km/h (1 Bft)
11.01.2018 07:35 0,6 C 96 % 1015,6 hPa 0,0 mm O-SO 107 8,0 km/h (2 Bft)
11.01.2018 07:40 0,6 C 96 % 1015,6 hPa 0,0 mm NO 53 8,0 km/h (2 Bft)
11.01.2018 07:45 0,7 C 96 % 1015,6 hPa 0,0 mm O-SO 117 8,0 km/h (2 Bft)
11.01.2018 07:50 0,7 C 96 % 1015,7 hPa 0,0 mm O-NO 76 6,4 km/h (2 Bft)
11.01.2018 07:55 0,6 C 96 % 1015,7 hPa 0,0 mm O-NO 76 3,2 km/h (1 Bft)
11.01.2018 08:00 0,7 C 96 % 1015,7 hPa 0,0 mm O-NO 69 8,0 km/h (2 Bft)
11.01.2018 08:05 0,7 C 96 % 1015,8 hPa 0,0 mm O-NO 72 9,7 km/h (2 Bft)
11.01.2018 08:10 0,6 C 96 % 1015,8 hPa 0,0 mm O 89 11,3 km/h (2 Bft)
11.01.2018 08:15 0,6 C 96 % 1015,9 hPa 0,0 mm O 82 11,3 km/h (2 Bft)
11.01.2018 08:20 0,6 C 96 % 1015,9 hPa 0,0 mm O 83 9,7 km/h (2 Bft)
11.01.2018 08:25 0,5 C 96 % 1015,9 hPa 0,0 mm O 87 11,3 km/h (2 Bft)
11.01.2018 08:30 0,4 C 96 % 1015,9 hPa 0,0 mm O-NO 59 11,3 km/h (2 Bft)
11.01.2018 08:35 0,4 C 96 % 1015,8 hPa 0,0 mm O-NO 77 8,0 km/h (2 Bft)
11.01.2018 08:40 0,4 C 96 % 1016,0 hPa 0,0 mm O-SO 112 8,0 km/h (2 Bft)
11.01.2018 08:45 0,4 C 96 % 1016,0 hPa 0,0 mm O 84 8,0 km/h (2 Bft)
11.01.2018 08:50 0,4 C 96 % 1016,0 hPa 0,0 mm NO 52 8,0 km/h (2 Bft)
11.01.2018 08:55 0,4 C 96 % 1016,1 hPa 0,0 mm O-NO 70 8,0 km/h (2 Bft)
11.01.2018 09:00 0,5 C 96 % 1016,1 hPa 0,0 mm O 82 8,0 km/h (2 Bft)
11.01.2018 09:05 0,6 C 96 % 1016,2 hPa 0,0 mm O-NO 77 9,7 km/h (2 Bft)
11.01.2018 09:10 0,5 C 96 % 1016,3 hPa 0,0 mm O 96 11,3 km/h (2 Bft)
11.01.2018 09:15 0,5 C 96 % 1016,3 hPa 0,0 mm O 90 9,7 km/h (2 Bft)
11.01.2018 09:20 0,5 C 96 % 1016,3 hPa 0,0 mm O 101 11,3 km/h (2 Bft)
11.01.2018 09:25 0,4 C 96 % 1016,4 hPa 0,0 mm O-SO 119 11,3 km/h (2 Bft)
11.01.2018 09:30 0,6 C 96 % 1016,4 hPa 0,0 mm NO 52 8,0 km/h (2 Bft)
11.01.2018 09:35 0,6 C 96 % 1016,5 hPa 0,0 mm O-NO 65 9,7 km/h (2 Bft)
11.01.2018 09:40 0,6 C 96 % 1016,5 hPa 0,0 mm O 89 8,0 km/h (2 Bft)
11.01.2018 09:45 0,6 C 96 % 1016,6 hPa 0,0 mm O-NO 63 8,0 km/h (2 Bft)
11.01.2018 09:50 0,6 C 96 % 1016,6 hPa 0,0 mm O-NO 69 8,0 km/h (2 Bft)
11.01.2018 09:55 0,6 C 96 % 1016,6 hPa 0,0 mm O 85 11,3 km/h (2 Bft)
11.01.2018 10:00 0,6 C 96 % 1016,7 hPa 0,0 mm O 90 8,0 km/h (2 Bft)
11.01.2018 10:05 0,7 C 96 % 1016,7 hPa 0,0 mm O 84 9,7 km/h (2 Bft)
11.01.2018 10:10 0,7 C 96 % 1016,7 hPa 0,0 mm O 82 9,7 km/h (2 Bft)
11.01.2018 10:15 0,7 C 96 % 1016,7 hPa 0,0 mm O-NO 76 11,3 km/h (2 Bft)
11.01.2018 10:20 0,7 C 96 % 1016,7 hPa 0,0 mm O-NO 65 11,3 km/h (2 Bft)
11.01.2018 10:25 0,7 C 96 % 1016,7 hPa 0,0 mm O-SO 108 9,7 km/h (2 Bft)
11.01.2018 10:30 0,8 C 96 % 1016,7 hPa 0,0 mm O 85 8,0 km/h (2 Bft)
11.01.2018 10:35 0,8 C 96 % 1016,7 hPa 0,0 mm O-SO 113 6,4 km/h (2 Bft)
11.01.2018 10:40 0,9 C 96 % 1016,6 hPa 0,0 mm O-SO 123 8,0 km/h (2 Bft)
11.01.2018 10:45 0,9 C 96 % 1016,6 hPa 0,0 mm O-NO 66 8,0 km/h (2 Bft)
11.01.2018 10:50 1,0 C 96 % 1016,6 hPa 0,0 mm O 91 9,7 km/h (2 Bft)
11.01.2018 10:55 1,0 C 96 % 1016,6 hPa 0,0 mm O-NO 67 8,0 km/h (2 Bft)
11.01.2018 11:00 1,0 C 96 % 1016,6 hPa 0,0 mm O-NO 73 11,3 km/h (2 Bft)
11.01.2018 11:05 1,1 C 96 % 1016,6 hPa 0,0 mm O-SO 102 9,7 km/h (2 Bft)
11.01.2018 11:10 1,2 C 96 % 1016,6 hPa 0,0 mm O-NO 69 9,7 km/h (2 Bft)
11.01.2018 11:15 1,2 C 96 % 1016,6 hPa 0,0 mm O 91 11,3 km/h (2 Bft)
11.01.2018 11:20 1,3 C 96 % 1016,6 hPa 0,0 mm O 94 9,7 km/h (2 Bft)
11.01.2018 11:25 1,3 C 96 % 1016,6 hPa 0,0 mm O-NO 69 8,0 km/h (2 Bft)
11.01.2018 11:30 1,2 C 96 % 1016,6 hPa 0,0 mm NO 48 11,3 km/h (2 Bft)
11.01.2018 11:35 1,2 C 96 % 1016,6 hPa 0,0 mm O-SO 109 9,7 km/h (2 Bft)
11.01.2018 11:40 1,2 C 96 % 1016,6 hPa 0,0 mm O-SO 118 8,0 km/h (2 Bft)
11.01.2018 11:45 1,3 C 96 % 1016,6 hPa 0,0 mm SO 141 8,0 km/h (2 Bft)
11.01.2018 11:50 1,4 C 96 % 1016,6 hPa 0,0 mm NO 51 9,7 km/h (2 Bft)
11.01.2018 11:55 1,4 C 96 % 1016,6 hPa 0,0 mm O 98 11,3 km/h (2 Bft)
11.01.2018 12:00 1,4 C 96 % 1016,6 hPa 0,0 mm O-NO 78 12,9 km/h (3 Bft)
11.01.2018 12:05 1,4 C 96 % 1016,5 hPa 0,0 mm O 98 11,3 km/h (2 Bft)
11.01.2018 12:10 1,6 C 96 % 1016,5 hPa 0,0 mm O-NO 71 11,3 km/h (2 Bft)
11.01.2018 12:15 1,4 C 96 % 1016,4 hPa 0,0 mm NO 53 9,7 km/h (2 Bft)
11.01.2018 12:20 1,6 C 96 % 1016,4 hPa 0,0 mm O-NO 61 8,0 km/h (2 Bft)
11.01.2018 12:25 1,6 C 96 % 1016,5 hPa 0,0 mm O-SO 109 11,3 km/h (2 Bft)
11.01.2018 12:30 1,6 C 96 % 1016,4 hPa 0,0 mm O-NO 77 11,3 km/h (2 Bft)
11.01.2018 12:35 1,6 C 96 % 1016,4 hPa 0,0 mm O-NO 59 11,3 km/h (2 Bft)
11.01.2018 12:40 1,8 C 96 % 1016,3 hPa 0,0 mm O-NO 72 8,0 km/h (2 Bft)
11.01.2018 12:45 1,7 C 96 % 1016,4 hPa 0,0 mm O-NO 57 9,7 km/h (2 Bft)
11.01.2018 12:50 1,7 C 96 % 1016,3 hPa 0,0 mm O-NO 78 11,3 km/h (2 Bft)
11.01.2018 12:55 1,7 C 96 % 1016,3 hPa 0,0 mm O-NO 71 9,7 km/h (2 Bft)
11.01.2018 13:00 1,8 C 96 % 1016,4 hPa 0,0 mm O 81 12,9 km/h (3 Bft)
11.01.2018 13:05 1,7 C 96 % 1016,3 hPa 0,0 mm O-NO 67 12,9 km/h (3 Bft)
11.01.2018 13:10 1,8 C 96 % 1016,3 hPa 0,0 mm NO 50 11,3 km/h (2 Bft)
11.01.2018 13:15 1,8 C 96 % 1016,3 hPa 0,0 mm O-NO 78 11,3 km/h (2 Bft)
11.01.2018 13:20 1,9 C 96 % 1016,3 hPa 0,0 mm O-NO 78 11,3 km/h (2 Bft)
11.01.2018 13:25 2,1 C 96 % 1016,3 hPa 0,0 mm NO 51 9,7 km/h (2 Bft)
11.01.2018 13:30 2,2 C 96 % 1016,3 hPa 0,0 mm O 92 9,7 km/h (2 Bft)
11.01.2018 13:35 2,1 C 96 % 1016,4 hPa 0,0 mm O 82 8,0 km/h (2 Bft)
11.01.2018 13:40 2,2 C 96 % 1016,4 hPa 0,0 mm O-SO 104 8,0 km/h (2 Bft)
11.01.2018 13:45 2,2 C 96 % 1016,5 hPa 0,0 mm O 89 14,5 km/h (3 Bft)
11.01.2018 13:50 2,2 C 96 % 1016,5 hPa 0,0 mm O-SO 121 11,3 km/h (2 Bft)
11.01.2018 13:55 2,3 C 96 % 1016,5 hPa 0,0 mm O-NO 75 11,3 km/h (2 Bft)
11.01.2018 14:00 2,3 C 96 % 1016,6 hPa 0,0 mm O-SO 103 11,3 km/h (2 Bft)
11.01.2018 14:05 2,3 C 96 % 1016,6 hPa 0,0 mm O 101 8,0 km/h (2 Bft)
11.01.2018 14:10 2,3 C 96 % 1016,7 hPa 0,0 mm O-SO 111 6,4 km/h (2 Bft)
11.01.2018 14:15 2,4 C 96 % 1016,8 hPa 0,0 mm O 97 8,0 km/h (2 Bft)
11.01.2018 14:20 2,4 C 95 % 1016,8 hPa 0,0 mm O-NO 59 6,4 km/h (2 Bft)
11.01.2018 14:25 2,4 C 95 % 1016,9 hPa 0,0 mm O-NO 62 4,8 km/h (1 Bft)
11.01.2018 14:30 2,4 C 95 % 1017,0 hPa 0,0 mm O-NO 62 6,4 km/h (2 Bft)
11.01.2018 14:35 2,4 C 95 % 1017,1 hPa 0,0 mm NO 51 6,4 km/h (2 Bft)
11.01.2018 14:40 2,5 C 95 % 1017,1 hPa 0,0 mm NO 51 4,8 km/h (1 Bft)
11.01.2018 14:45 2,5 C 95 % 1017,2 hPa 0,0 mm NO 51 3,2 km/h (1 Bft)
11.01.2018 14:50 2,6 C 95 % 1017,2 hPa 0,0 mm NO 51 4,8 km/h (1 Bft)
11.01.2018 14:55 2,6 C 95 % 1017,3 hPa 0,0 mm NO 51 0,0 km/h (0 Bft)
11.01.2018 15:00 2,6 C 95 % 1017,3 hPa 0,0 mm NO 51 1,6 km/h (1 Bft)
11.01.2018 15:05 2,6 C 95 % 1017,3 hPa 0,0 mm NO 51 3,2 km/h (1 Bft)
11.01.2018 15:10 2,6 C 95 % 1017,4 hPa 0,0 mm NO 51 0,0 km/h (0 Bft)
11.01.2018 15:15 2,6 C 95 % 1017,4 hPa 0,0 mm NO 51 3,2 km/h (1 Bft)
11.01.2018 15:20 2,7 C 95 % 1017,5 hPa 0,0 mm NO 51 3,2 km/h (1 Bft)
11.01.2018 15:25 2,7 C 95 % 1017,6 hPa 0,0 mm NO 51 3,2 km/h (1 Bft)
11.01.2018 15:30 2,8 C 95 % 1017,6 hPa 0,0 mm NO 51 1,6 km/h (1 Bft)
11.01.2018 15:35 2,8 C 95 % 1017,6 hPa 0,0 mm NO 51 0,0 km/h (0 Bft)
11.01.2018 15:40 2,8 C 95 % 1017,8 hPa 0,0 mm NO 51 1,6 km/h (1 Bft)
11.01.2018 15:45 2,8 C 95 % 1017,8 hPa 0,0 mm NO 51 0,0 km/h (0 Bft)
11.01.2018 15:50 2,8 C 95 % 1017,7 hPa 0,0 mm NO 51 0,0 km/h (0 Bft)
11.01.2018 15:55 2,8 C 95 % 1017,8 hPa 0,0 mm NO 51 3,2 km/h (1 Bft)
11.01.2018 16:00 2,7 C 95 % 1017,9 hPa 0,0 mm NO 51 4,8 km/h (1 Bft)
11.01.2018 16:05 2,7 C 95 % 1017,9 hPa 0,0 mm NO 51 1,6 km/h (1 Bft)
11.01.2018 16:10 2,7 C 95 % 1017,9 hPa 0,0 mm NO 51 1,6 km/h (1 Bft)
11.01.2018 16:15 2,7 C 95 % 1018,1 hPa 0,0 mm NO 51 0,0 km/h (0 Bft)
11.01.2018 16:20 2,6 C 95 % 1018,1 hPa 0,0 mm NO 51 0,0 km/h (0 Bft)
11.01.2018 16:25 2,6 C 95 % 1018,2 hPa 0,0 mm NO 51 0,0 km/h (0 Bft)
11.01.2018 16:30 2,6 C 95 % 1018,2 hPa 0,0 mm NO 51 0,0 km/h (0 Bft)
11.01.2018 16:35 2,6 C 95 % 1018,3 hPa 0,0 mm NO 51 0,0 km/h (0 Bft)
11.01.2018 16:40 2,6 C 95 % 1018,4 hPa 0,0 mm NO 51 3,2 km/h (1 Bft)
11.01.2018 16:45 2,6 C 95 % 1018,4 hPa 0,0 mm NO 51 0,0 km/h (0 Bft)
11.01.2018 16:50 2,6 C 95 % 1018,5 hPa 0,0 mm NO 51 0,0 km/h (0 Bft)
11.01.2018 16:55 2,6 C 95 % 1018,5 hPa 0,0 mm NO 51 0,0 km/h (0 Bft)
11.01.2018 17:00 2,6 C 95 % 1018,6 hPa 0,0 mm NO 51 3,2 km/h (1 Bft)
11.01.2018 17:05 2,6 C 95 % 1018,6 hPa 0,0 mm NO 51 4,8 km/h (1 Bft)
11.01.2018 17:10 2,6 C 95 % 1018,7 hPa 0,0 mm NO 51 4,8 km/h (1 Bft)
11.01.2018 17:15 2,6 C 95 % 1018,7 hPa 0,0 mm NO 51 4,8 km/h (1 Bft)
11.01.2018 17:20 2,6 C 95 % 1018,9 hPa 0,0 mm NO 51 3,2 km/h (1 Bft)
11.01.2018 17:25 2,6 C 95 % 1018,9 hPa 0,0 mm NO 51 1,6 km/h (1 Bft)
11.01.2018 17:30 2,6 C 95 % 1019,0 hPa 0,0 mm NO 51 4,8 km/h (1 Bft)
11.01.2018 17:35 2,6 C 95 % 1019,0 hPa 0,0 mm NO 51 1,6 km/h (1 Bft)
11.01.2018 17:40 2,6 C 95 % 1019,1 hPa 0,0 mm NO 51 3,2 km/h (1 Bft)
11.01.2018 17:45 2,6 C 95 % 1019,2 hPa 0,0 mm NO 51 4,8 km/h (1 Bft)
11.01.2018 17:50 2,6 C 95 % 1019,2 hPa 0,0 mm NO 51 4,8 km/h (1 Bft)
11.01.2018 17:55 2,6 C 95 % 1019,2 hPa 0,0 mm NO 51 4,8 km/h (1 Bft)
11.01.2018 18:00 2,6 C 95 % 1019,2 hPa 0,0 mm NO 51 4,8 km/h (1 Bft)
11.01.2018 18:05 2,6 C 95 % 1019,3 hPa 0,0 mm NO 51 3,2 km/h (1 Bft)
11.01.2018 18:10 2,6 C 95 % 1019,3 hPa 0,0 mm NO 51 3,2 km/h (1 Bft)
11.01.2018 18:15 2,6 C 95 % 1019,3 hPa 0,0 mm NO 51 4,8 km/h (1 Bft)
11.01.2018 18:20 2,6 C 95 % 1019,4 hPa 0,0 mm NO 51 3,2 km/h (1 Bft)
11.01.2018 18:25 2,6 C 95 % 1019,4 hPa 0,0 mm NO 51 3,2 km/h (1 Bft)
11.01.2018 18:30 2,6 C 95 % 1019,4 hPa 0,0 mm NO 51 4,8 km/h (1 Bft)
11.01.2018 18:35 2,5 C 95 % 1019,3 hPa 0,0 mm O 79 4,8 km/h (1 Bft)
11.01.2018 18:40 2,5 C 95 % 1019,4 hPa 0,0 mm O 79 8,0 km/h (2 Bft)
11.01.2018 18:45 2,5 C 95 % 1019,5 hPa 0,0 mm O 100 8,0 km/h (2 Bft)
11.01.2018 18:50 2,5 C 95 % 1019,6 hPa 0,0 mm O 88 8,0 km/h (2 Bft)
11.01.2018 18:55 2,5 C 95 % 1019,6 hPa 0,0 mm O 88 8,0 km/h (2 Bft)
11.01.2018 19:00 2,5 C 95 % 1019,7 hPa 0,0 mm O-NO 76 8,0 km/h (2 Bft)
11.01.2018 19:05 2,4 C 95 % 1019,8 hPa 0,0 mm O-NO 76 4,8 km/h (1 Bft)
11.01.2018 19:10 2,4 C 95 % 1019,8 hPa 0,0 mm O 82 9,7 km/h (2 Bft)
11.01.2018 19:15 2,4 C 95 % 1019,8 hPa 0,0 mm O 92 9,7 km/h (2 Bft)
11.01.2018 19:20 2,4 C 95 % 1019,9 hPa 0,0 mm O 86 8,0 km/h (2 Bft)
11.01.2018 19:25 2,4 C 95 % 1019,9 hPa 0,0 mm O-NO 76 8,0 km/h (2 Bft)
11.01.2018 19:30 2,4 C 95 % 1019,9 hPa 0,0 mm O-NO 71 6,4 km/h (2 Bft)
11.01.2018 19:35 2,4 C 95 % 1020,0 hPa 0,0 mm O-NO 71 8,0 km/h (2 Bft)
11.01.2018 19:40 2,3 C 95 % 1020,0 hPa 0,0 mm O-NO 71 6,4 km/h (2 Bft)
11.01.2018 19:45 2,3 C 95 % 1020,1 hPa 0,0 mm O-NO 71 4,8 km/h (1 Bft)
11.01.2018 19:50 2,3 C 95 % 1020,0 hPa 0,0 mm O-NO 71 6,4 km/h (2 Bft)
11.01.2018 19:55 2,3 C 95 % 1020,1 hPa 0,0 mm O-NO 71 4,8 km/h (1 Bft)
11.01.2018 20:00 2,3 C 95 % 1020,0 hPa 0,0 mm O-NO 71 4,8 km/h (1 Bft)
11.01.2018 20:05 2,3 C 95 % 1020,2 hPa 0,0 mm O-NO 71 3,2 km/h (1 Bft)
11.01.2018 20:10 2,3 C 95 % 1020,2 hPa 0,0 mm O-NO 71 4,8 km/h (1 Bft)
11.01.2018 20:15 2,3 C 95 % 1020,3 hPa 0,0 mm O-NO 71 4,8 km/h (1 Bft)
11.01.2018 20:20 2,3 C 95 % 1020,3 hPa 0,0 mm O-NO 71 3,2 km/h (1 Bft)
11.01.2018 20:25 2,3 C 95 % 1020,4 hPa 0,0 mm O-NO 71 1,6 km/h (1 Bft)
11.01.2018 20:30 2,3 C 95 % 1020,5 hPa 0,0 mm O-NO 71 1,6 km/h (1 Bft)
11.01.2018 20:35 2,3 C 95 % 1020,4 hPa 0,0 mm O-NO 71 1,6 km/h (1 Bft)
11.01.2018 20:40 2,3 C 95 % 1020,5 hPa 0,0 mm O-NO 71 1,6 km/h (1 Bft)
11.01.2018 20:45 2,3 C 95 % 1020,4 hPa 0,0 mm O-NO 71 0,0 km/h (0 Bft)
11.01.2018 20:50 2,3 C 95 % 1020,5 hPa 0,0 mm O-NO 71 0,0 km/h (0 Bft)
11.01.2018 20:55 2,3 C 95 % 1020,6 hPa 0,0 mm O-NO 71 0,0 km/h (0 Bft)
11.01.2018 21:00 2,3 C 95 % 1020,6 hPa 0,0 mm O-NO 71 0,0 km/h (0 Bft)
11.01.2018 21:05 2,3 C 95 % 1020,7 hPa 0,0 mm O-NO 71 0,0 km/h (0 Bft)
11.01.2018 21:10 2,3 C 95 % 1020,7 hPa 0,0 mm O-NO 71 0,0 km/h (0 Bft)
11.01.2018 21:15 2,3 C 95 % 1020,7 hPa 0,0 mm O-NO 71 0,0 km/h (0 Bft)
11.01.2018 21:20 2,3 C 95 % 1020,8 hPa 0,0 mm O-NO 71 0,0 km/h (0 Bft)
11.01.2018 21:25 2,3 C 95 % 1020,7 hPa 0,0 mm O-NO 71 0,0 km/h (0 Bft)
11.01.2018 21:30 2,3 C 95 % 1020,6 hPa 0,0 mm O-NO 71 0,0 km/h (0 Bft)
11.01.2018 21:35 2,3 C 95 % 1020,7 hPa 0,0 mm O-NO 71 0,0 km/h (0 Bft)
11.01.2018 21:40 2,3 C 95 % 1020,7 hPa 0,0 mm O-NO 71 0,0 km/h (0 Bft)
11.01.2018 21:45 2,3 C 95 % 1020,8 hPa 0,0 mm O-NO 71 0,0 km/h (0 Bft)
11.01.2018 21:50 2,3 C 95 % 1020,8 hPa 0,0 mm O-NO 71 0,0 km/h (0 Bft)
11.01.2018 21:55 2,3 C 95 % 1020,8 hPa 0,0 mm O-NO 71 0,0 km/h (0 Bft)
11.01.2018 22:00 2,3 C 95 % 1020,9 hPa 0,0 mm O-NO 71 0,0 km/h (0 Bft)
11.01.2018 22:05 2,3 C 95 % 1020,9 hPa 0,0 mm O-NO 71 0,0 km/h (0 Bft)
11.01.2018 22:10 2,3 C 95 % 1021,0 hPa 0,0 mm O-NO 71 0,0 km/h (0 Bft)
11.01.2018 22:15 2,3 C 95 % 1021,1 hPa 0,0 mm O-NO 71 0,0 km/h (0 Bft)
11.01.2018 22:20 2,3 C 95 % 1021,1 hPa 0,0 mm O-NO 71 0,0 km/h (0 Bft)
11.01.2018 22:25 2,3 C 95 % 1021,2 hPa 0,0 mm O-NO 71 0,0 km/h (0 Bft)
11.01.2018 22:30 2,3 C 95 % 1021,3 hPa 0,0 mm O-NO 71 0,0 km/h (0 Bft)
11.01.2018 22:35 2,3 C 95 % 1021,3 hPa 0,0 mm O-NO 71 0,0 km/h (0 Bft)
11.01.2018 22:40 2,3 C 95 % 1021,3 hPa 0,0 mm O-NO 71 0,0 km/h (0 Bft)
11.01.2018 22:45 2,3 C 95 % 1021,4 hPa 0,0 mm O-NO 71 1,6 km/h (1 Bft)
11.01.2018 22:50 2,3 C 95 % 1021,5 hPa 0,0 mm O-NO 71 0,0 km/h (0 Bft)
11.01.2018 22:55 2,3 C 95 % 1021,5 hPa 0,0 mm O-NO 71 0,0 km/h (0 Bft)
11.01.2018 23:00 2,3 C 95 % 1021,6 hPa 0,0 mm O-NO 71 0,0 km/h (0 Bft)
11.01.2018 23:05 2,3 C 95 % 1021,7 hPa 0,0 mm O-NO 71 3,2 km/h (1 Bft)
11.01.2018 23:10 2,3 C 95 % 1021,7 hPa 0,0 mm S 169 6,4 km/h (2 Bft)
11.01.2018 23:15 2,2 C 95 % 1021,7 hPa 0,0 mm S-SO 161 4,8 km/h (1 Bft)
11.01.2018 23:20 2,2 C 95 % 1021,7 hPa 0,0 mm S-SO 161 0,0 km/h (0 Bft)
11.01.2018 23:25 2,2 C 95 % 1021,8 hPa 0,0 mm S-SO 161 0,0 km/h (0 Bft)
11.01.2018 23:30 2,2 C 95 % 1021,8 hPa 0,0 mm S-SO 161 0,0 km/h (0 Bft)
11.01.2018 23:35 2,3 C 95 % 1021,8 hPa 0,0 mm S-SO 161 1,6 km/h (1 Bft)
11.01.2018 23:40 2,3 C 95 % 1021,8 hPa 0,0 mm S-SO 161 3,2 km/h (1 Bft)
11.01.2018 23:45 2,3 C 95 % 1021,9 hPa 0,0 mm S-SO 161 0,0 km/h (0 Bft)
11.01.2018 23:50 2,3 C 95 % 1021,8 hPa 0,0 mm S-SO 161 0,0 km/h (0 Bft)
11.01.2018 23:55 2,3 C 95 % 1021,8 hPa 0,0 mm S-SO 161 0,0 km/h (0 Bft)
_ Min-Zeit 00:05 00:00 01:40 - - - 00:00
Minimum _ -1,8 C 95 % 1014,0 hPa - - - 0,0 km/h (0 Bft)
_ Max-Zeit 15:45 02:05 23:45 00:00 - - 13:45
Maximum _ 2,9 C 96 % 1021,9 hPa 0,0 mm - - 14,5 km/h
O-NO (3 Bft)
Durchschnitt _ 1,4 C 96 % 1017,1 hPa #0,0 mm O-NO - 4,7 km/h (1 Bft)